Change the Weather History Date:

Wednesday, January 4, 2012

  Actual Average Record
Temperature  
Mean Temperature 19 °F -  
Max Temperature 28 °F 38 °F 55 °F (1998)
Min Temperature 10 °F 23 °F -1 °F (1981)
Degree Days  
Heating Degree Days 46    
Moisture  
Dew Point 4 °F    
Average Humidity 49    
Maximum Humidity 58    
Minimum Humidity 34    
Precipitation  
Precipitation 0.00 in - - ()
Sea Level Pressure  
Sea Level Pressure 30.06 in    
Wind  
Wind Speed 10 mph (WNW)    
Max Wind Speed 14 mph    
Max Gust Speed 20 mph    
Visibility 10 miles    
Events      
Averages and records for this station are not official NWS values.
T = Trace of Precipitation, MM = Missing Value Source: NWS Daily Summary

Daily Weather History Graph

Daily Weather History Graph

Search for Another Location

Airport or City:

Trip Planner

Search our weather history database for the weather conditions in past years. The results will help you decide how hot, cold, wet, or windy it might be!

Date:

Astronomy

Jan. 04, 2012 Rise Set
Actual Time 7:14 AM EST 4:31 PM EST
Civil Twilight 6:43 AM EST 5:02 PM EST
Nautical Twilight 6:08 AM EST 5:37 PM EST
Astronomical Twilight 5:35 AM EST 6:11 PM EST
Moon 12:53 PM EST (1/4) 2:59 AM EST (1/4)
Length of Visible Light 10h 19m
Length of Day
9h 17m
Waxing Gibbous, 80% of the Moon is Illuminated
Jan 4
Waxing Gibbous
Jan 9
Full
Jan 16
Last Quarter
Jan 23
New
Jan 30
First Quarter

Hourly Weather History & Observations

Time (EST) Temp. Windchill Dew Point Humidity Pressure Visibility Wind Dir Wind Speed Gust Speed Precip Events Conditions
12:56 AM 14.0 °F 1.2 °F -5.1 °F 43% 30.08 in 10.0 mi NNW 10.4 mph - N/A   Clear
1:56 AM 12.9 °F -1.6 °F -6.0 °F 43% 30.09 in 10.0 mi NW 12.7 mph - N/A   Clear
2:56 AM 12.0 °F -2.7 °F -5.1 °F 46% 30.10 in 10.0 mi NW 12.7 mph - N/A   Clear
3:56 AM 12.0 °F -0.4 °F -4.0 °F 49% 30.11 in 10.0 mi NW 9.2 mph 19.6 mph N/A   Clear
4:56 AM 10.9 °F -4.7 °F -2.9 °F 54% 30.10 in 10.0 mi NW 13.8 mph - N/A   Clear
5:56 AM 10.9 °F -2.6 °F -2.9 °F 54% 30.11 in 10.0 mi NW 10.4 mph - N/A   Clear
6:56 AM 10.9 °F -0.8 °F -2.9 °F 54% 30.12 in 10.0 mi NW 8.1 mph - N/A   Clear
7:56 AM 12.0 °F 0.5 °F -2.9 °F 51% 30.14 in 9.0 mi NW 8.1 mph - N/A   Clear
8:56 AM 14.0 °F -0.2 °F -2.0 °F 49% 30.16 in 9.0 mi NW 12.7 mph - N/A   Clear
9:56 AM 17.1 °F 4.3 °F -2.0 °F 43% 30.15 in 10.0 mi NW 11.5 mph - N/A   Clear
10:56 AM 19.9 °F 10.1 °F -2.0 °F 38% 30.12 in 10.0 mi NW 8.1 mph - N/A   Clear
11:56 AM 23.0 °F 14.7 °F -0.9 °F 35% 30.09 in 10.0 mi NNW 6.9 mph - N/A   Clear
12:56 PM 25.0 °F 14.8 °F -0.0 °F 34% 30.08 in 10.0 mi West 10.4 mph - N/A   Clear
1:56 PM 26.1 °F 20.5 °F 1.0 °F 34% 30.05 in 10.0 mi WNW 4.6 mph - N/A   Overcast
2:56 PM 26.1 °F 17.6 °F 8.1 °F 47% 30.03 in 10.0 mi WSW 8.1 mph - N/A   Scattered Clouds
3:56 PM 26.1 °F 16.8 °F 12.0 °F 55% 30.02 in 10.0 mi WSW 9.2 mph - N/A   Clear
4:56 PM 26.1 °F 16.8 °F 12.0 °F 55% 30.02 in 10.0 mi West 9.2 mph - N/A   Clear
5:56 PM 26.1 °F 19.4 °F 10.9 °F 53% 30.02 in 10.0 mi WNW 5.8 mph - N/A   Mostly Cloudy
6:56 PM 28.9 °F 19.2 °F 15.1 °F 56% 30.01 in 10.0 mi WSW 11.5 mph - N/A   Overcast
7:56 PM 28.0 °F 21.7 °F 14.0 °F 56% 30.00 in 10.0 mi West 5.8 mph - N/A   Overcast
8:56 PM 28.9 °F 20.4 °F 12.0 °F 49% 29.99 in 10.0 mi West 9.2 mph 19.6 mph N/A   Clear
9:56 PM 28.9 °F 19.8 °F 16.0 °F 58% 29.98 in 10.0 mi West 10.4 mph - N/A   Clear
10:56 PM 25.0 °F 18.1 °F 12.0 °F 58% 29.96 in 10.0 mi West 5.8 mph - N/A   Clear
11:56 PM 27.0 °F 16.7 °F 10.9 °F 51% 29.95 in 10.0 mi West 11.5 mph - N/A   Clear